CAPE
nan nan nan nan nan nan nan nan nan nan nan 1 nan nan nan 1 nan nan nan 0 0 nan nan nan nan nan 0 64 100 100 120 124 127 127 121 114 115 115 112 125 125 129 139 147 147 156 165 173 173 188 202 202 172 172 142 127 127 141 171 225 225 259 258 236 236 201 168 145 134 134 139 147 148 148 147 153 160 160 160 162 162 170 178 209 209 232
nan nan nan nan nan nan nan nan nan nan 0 0 nan nan nan nan nan nan nan nan nan nan nan nan nan nan nan 7 87 87 112 130 133 133 125 116 116 116 118 127 127 145 157 169 169 186 204 215 215 242 250 228 181 181 150 136 136 145 176 233 233 290 317 308 308 266 216 170 154 154 151 144 141 141 137 135 133 133 131 126 126 127 138 170 170 192
nan nan 2 1 1 0 0 1 1 1 0 nan nan nan nan nan nan nan nan nan nan nan nan nan nan nan nan nan 86 86 105 125 129 129 125 121 121 121 126 140 140 161 176 196 196 224 254 284 284 282 264 221 185 185 164 156 156 166 192 243 243 284 322 342 342 321 268 215 180 180 166 155 145 145 132 130 125 125 129 124 124 125 122 134 134 146
2 6 5 5 5 2 2 1 nan nan nan nan nan nan nan nan nan nan nan nan nan nan nan nan nan nan nan nan 42 42 100 122 127 127 130 131 136 136 145 156 156 185 209 231 231 266 305 303 303 278 238 209 186 186 176 186 186 198 222 241 241 273 294 296 296 311 285 241 205 205 183 158 142 142 134 132 138 138 141 139 139 134 127 133 133 147
11 8 2 1 1 nan 0 nan nan nan nan nan nan nan nan nan nan nan nan nan nan nan nan nan nan nan nan nan 10 10 91 124 132 132 136 142 153 153 165 190 190 216 249 256 256 293 316 281 281 244 209 193 178 178 192 212 212 232 254 240 240 265 262 260 260 269 265 239 204 204 175 161 149 149 144 157 162 162 160 148 148 141 128 131 131 144
3 0 nan nan nan nan nan nan nan nan nan nan nan nan nan nan nan nan nan nan nan nan nan nan nan nan nan nan 15 15 85 122 135 135 143 158 171 171 189 219 219 249 258 261 261 261 265 233 233 202 184 183 191 191 222 261 261 304 327 340 340 336 342 308 308 280 255 232 220 220 195 178 166 166 172 176 173 173 159 143 143 139 132 128 128 122
1 nan nan nan nan nan nan nan 0 0 nan nan nan nan nan nan nan nan nan nan nan nan nan nan nan nan nan nan 39 39 88 104 123 123 136 161 182 182 214 234 234 256 232 229 229 230 208 192 192 185 178 192 223 223 270 320 320 348 374 389 389 399 380 315 315 262 234 228 219 219 202 191 192 192 188 189 170 170 156 137 137 130 125 121 121 112
4 nan nan nan nan nan nan nan nan nan nan nan 3 3 26 41 42 42 3 nan nan nan nan nan nan nan nan nan nan nan nan nan 5 5 53 104 127 127 126 137 137 137 144 144 144 157 172 179 179 188 204 243 300 300 355 375 375 355 332 327 327 315 280 273 273 253 242 231 210 210 213 215 223 223 198 168 145 145 139 131 131 127 129 139 139 161
1 nan nan nan nan nan nan nan nan nan nan 1 11 11 6 22 20 20 1 nan nan nan nan nan nan nan nan nan nan nan 0 25 27 27 59 26 6 6 42 63 63 93 129 142 142 157 175 189 189 212 228 272 335 335 388 336 336 283 260 246 246 219 209 227 227 229 218 209 214 214 211 210 202 202 174 155 139 139 137 139 139 131 130 150 150 201
nan nan nan nan nan nan nan nan nan nan 1 26 14 14 10 6 0 0 nan nan nan nan nan nan nan nan nan nan nan nan 1 55 140 140 138 67 77 77 50 46 46 45 122 148 148 174 192 207 207 230 254 290 348 348 330 224 224 186 184 161 161 175 165 169 169 179 178 193 192 192 196 190 179 179 168 152 157 157 152 143 143 129 127 138 138 173
nan nan nan nan nan nan nan nan 36 36 36 1 nan nan nan nan nan nan nan nan nan nan nan nan nan nan nan nan nan nan 13 2 nan nan 13 36 58 58 67 70 70 83 118 151 151 169 193 216 216 248 252 276 291 291 247 178 178 154 153 166 166 159 157 161 161 173 191 211 221 221 212 197 182 182 165 160 159 159 154 136 136 117 120 119 119 120
nan nan nan nan nan nan 1 33 28 28 nan nan nan nan nan nan nan nan nan nan nan nan nan nan nan nan nan nan 10 10 1 nan nan nan nan nan 1 1 11 16 16 41 65 105 105 147 186 220 220 217 208 197 218 218 186 140 140 147 159 166 166 167 153 163 163 173 205 234 260 260 256 218 203 203 183 162 157 157 145 126 126 114 110 108 108 101
nan nan nan nan nan 16 28 13 nan nan nan nan nan nan nan nan nan nan nan nan nan nan nan nan nan nan nan 2 23 23 nan nan nan nan nan nan nan nan 0 3 3 5 4 11 11 3 50 141 141 173 180 142 159 159 152 133 133 166 175 184 184 165 169 169 169 175 205 242 270 270 281 247 217 217 193 175 165 165 148 128 128 112 109 106 106 99
nan nan 9 34 34 24 0 nan nan nan nan nan nan nan nan nan nan nan nan nan nan nan nan nan nan nan 5 20 1 1 nan nan nan nan nan nan nan nan 1 6 6 3 0 0 0 nan 12 26 26 20 78 72 80 80 70 122 122 186 206 197 197 181 195 194 194 198 194 217 243 243 224 201 168 168 134 125 127 127 130 130 130 117 109 101 101 96
nan 19 46 30 30 2 nan nan nan nan nan nan nan nan nan nan nan nan nan nan nan nan nan nan nan 3 23 3 nan nan nan nan nan nan nan nan nan nan 0 nan nan nan nan nan nan nan 8 9 9 0 1 3 7 7 39 131 131 208 195 189 189 194 220 241 241 243 266 264 224 224 190 133 100 100 86 81 90 90 100 114 114 121 117 103 103 102
15 35 12 nan nan nan nan nan nan nan nan nan nan nan nan nan nan nan nan nan nan 3 16 26 26 3 nan nan nan nan nan nan nan nan nan nan nan nan nan nan nan nan nan nan nan 0 0 nan nan nan nan 10 94 94 169 221 221 189 186 188 188 202 227 246 246 259 261 224 180 180 136 98 81 81 73 70 81 81 85 91 91 105 113 109 109 101
16 2 nan nan nan nan nan nan nan nan nan 2 3 3 1 0 0 0 6 20 20 39 22 0 0 nan nan nan nan nan nan nan nan nan nan nan nan nan nan nan nan nan nan 0 0 nan nan nan nan nan 0 75 191 191 167 166 166 153 156 172 172 206 220 210 210 207 188 166 143 143 107 86 73 73 76 86 90 90 81 75 75 83 106 111 111 99
nan nan nan nan nan nan nan nan nan nan 0 6 8 8 3 3 13 13 46 61 61 11 nan nan nan nan nan nan nan nan nan nan nan nan nan nan nan nan nan nan nan nan nan nan nan nan nan nan nan nan 36 144 135 135 119 111 111 128 139 170 170 197 201 184 184 154 132 121 109 109 87 72 64 64 69 83 98 98 92 78 78 85 95 114 114 105
1 nan nan nan nan nan nan 0 3 3 9 17 18 18 9 11 36 36 57 7 7 nan nan nan nan nan nan nan nan nan nan nan 0 0 nan nan nan nan nan nan nan nan nan nan nan nan nan 6 6 66 117 111 101 101 97 97 97 118 144 180 180 179 171 134 134 113 111 101 83 83 64 54 47 47 47 49 58 58 66 83 83 87 94 103 103 99
5 1 1 0 0 0 1 5 14 14 31 35 23 23 16 31 39 39 0 nan nan nan nan nan nan nan nan nan nan nan nan nan 0 0 nan nan nan nan nan nan nan 0 2 nan nan nan 1 3 3 10 54 77 88 88 90 109 109 129 151 184 184 153 124 107 107 98 98 87 78 78 62 50 44 44 35 31 19 19 31 65 65 88 96 91 91 89
4 1 3 1 1 2 5 9 25 25 48 42 20 20 26 29 nan nan nan nan nan nan nan nan nan nan nan 0 1 1 nan 0 1 1 0 nan nan nan 1 10 10 13 7 7 7 22 6 nan nan nan 22 65 91 91 104 137 137 170 172 160 160 135 108 95 95 92 85 79 78 78 68 66 60 60 54 41 34 34 45 82 82 102 98 86 86 77
6 7 6 2 2 4 21 14 38 38 40 24 28 28 31 nan nan nan nan nan nan nan nan nan nan 1 3 7 7 7 0 nan 0 0 0 0 11 11 17 9 9 7 21 29 29 8 0 nan nan nan 16 78 111 111 131 163 163 186 177 148 148 125 103 89 89 90 83 93 97 97 102 83 79 79 66 70 69 69 80 98 98 97 94 76 76 69
9 10 6 1 1 2 16 14 8 8 19 30 51 51 15 nan nan nan nan nan nan 0 1 3 3 6 8 10 4 4 0 nan 0 0 8 24 33 33 6 4 4 35 45 23 23 2 nan nan nan nan 25 121 131 131 157 172 172 175 146 126 126 113 105 100 100 102 103 114 116 116 104 76 61 61 58 68 74 74 82 71 71 69 71 65 65 60
8 3 nan nan nan nan 1 4 4 4 19 47 36 36 11 nan nan nan nan 0 0 2 5 7 7 8 6 4 1 1 1 11 36 36 34 25 8 8 1 23 23 58 27 5 5 nan nan nan nan 0 27 138 163 163 159 156 156 144 136 123 123 118 121 125 125 125 134 130 118 118 88 58 35 35 33 42 58 58 58 53 53 46 44 44 44 45
nan nan nan nan nan 24 33 35 58 58 60 62 54 54 24 8 8 8 1 0 0 3 8 8 8 9 5 18 7 7 1 3 24 24 22 15 7 7 20 49 49 25 4 nan nan nan 1 3 3 6 31 91 142 142 140 135 135 133 127 132 132 137 146 140 140 146 140 118 93 93 69 47 41 41 44 51 51 51 50 41 41 36 31 29 29 26
29 24 35 92 92 188 222 222 187 187 134 76 39 39 9 5 2 2 2 6 6 7 11 8 8 8 5 4 7 7 4 14 21 21 30 35 37 37 37 23 23 1 0 nan nan 2 5 7 7 6 16 34 96 96 104 111 111 126 135 146 146 151 152 141 141 128 108 86 71 71 60 56 50 50 52 53 53 53 45 36 36 30 21 16 16 13
160 192 243 250 250 216 168 138 142 142 171 144 48 48 8 3 5 5 12 13 13 13 14 11 11 9 9 8 8 8 18 38 45 45 56 65 69 69 30 5 5 0 4 3 3 3 11 12 12 11 10 0 21 21 83 95 95 118 141 147 147 146 133 115 115 92 81 74 69 69 64 58 56 56 55 56 49 49 40 30 30 23 17 10 10 9
205 211 183 142 142 103 92 105 124 124 138 139 140 140 65 14 13 13 16 16 16 17 13 10 10 12 13 17 23 23 24 25 21 21 48 48 20 20 7 1 1 0 3 2 2 5 32 25 25 16 2 nan nan nan 37 84 84 102 117 123 123 119 105 89 89 77 73 70 68 68 61 60 58 58 57 54 44 44 38 29 29 21 17 9 9 1
137 105 72 62 62 61 78 99 110 110 114 109 115 115 65 16 14 14 16 14 14 13 11 15 15 13 27 29 28 28 16 11 15 15 35 20 9 9 0 0 0 0 1 2 2 5 17 14 14 0 nan nan nan nan 9 55 55 72 86 93 93 88 80 78 78 72 72 68 62 62 58 56 56 56 52 49 41 41 33 26 26 20 15 11 11 4
10 18 18 29 29 48 56 34 69 69 98 97 96 96 68 19 13 13 10 8 8 8 12 22 22 26 37 31 15 15 7 5 20 20 20 4 1 1 nan 0 0 1 4 4 4 6 5 1 1 nan nan nan nan nan nan 1 1 7 29 66 66 62 66 69 69 70 67 63 59 59 58 54 54 54 47 42 36 36 32 27 27 20 15 11 11 8
nan nan nan nan nan 2 2 nan 21 21 72 93 91 91 63 13 7 7 7 8 8 12 16 28 28 32 29 17 11 11 7 6 13 13 1 nan 1 1 1 1 1 2 2 3 3 7 12 0 0 nan nan nan nan nan nan nan nan nan nan 7 7 26 51 57 57 60 60 63 58 58 58 52 50 50 43 38 35 35 33 28 28 22 13 13 13 9
nan nan nan 0 0 4 6 3 1 1 0 2 2 2 20 21 15 15 7 9 9 15 18 20 20 21 22 17 9 9 9 nan 4 4 2 nan 1 1 0 nan nan 0 nan 1 1 3 4 2 2 nan nan nan nan nan nan nan nan nan nan nan nan nan 23 39 39 40 34 41 40 40 40 39 37 37 35 36 32 32 29 25 25 22 13 8 8 7
nan nan nan 3 3 4 3 1 0 0 1 0 0 0 0 5 25 25 13 10 10 11 9 11 11 9 11 9 6 6 2 nan 10 10 22 nan nan nan nan nan nan nan nan 2 2 9 4 nan nan nan nan nan nan nan nan nan nan 0 nan nan nan nan 5 12 12 7 12 15 17 17 28 30 33 33 35 33 28 28 29 30 30 30 18 7 7 2
nan nan 4 6 6 3 1 nan nan nan 0 0 5 5 3 2 4 4 9 5 5 3 0 0 0 0 2 0 1 1 nan nan 11 11 17 nan nan nan nan nan nan nan 0 10 10 8 0 nan nan nan nan nan nan nan nan nan nan nan nan nan nan nan nan nan nan nan 0 1 0 0 6 11 25 25 26 24 24 24 30 35 35 27 18 2 2 nan
nan 0 8 3 3 1 1 0 nan nan 0 0 0 0 1 1 0 0 1 2 2 1 nan nan nan nan nan nan nan nan nan nan 3 3 20 nan nan nan nan nan nan nan 6 14 14 3 nan nan nan nan nan nan nan nan nan nan nan nan nan nan nan nan nan nan nan nan nan nan 1 1 1 2 6 6 11 18 23 23 28 31 31 15 0 2 2 nan
nan 1 8 3 3 1 0 0 nan nan nan nan nan nan nan nan nan nan nan nan nan 1 4 0 0 nan nan nan nan nan nan nan 3 3 16 nan nan nan nan nan nan 1 13 8 8 nan nan nan nan 0 5 1 nan nan nan nan nan nan nan nan nan nan nan nan nan nan nan 0 2 2 0 0 3 3 4 19 24 24 25 19 19 10 nan 1 1 1
1 6 6 1 1 nan 0 nan nan nan nan nan nan nan nan nan nan nan nan nan nan nan nan 2 2 2 9 nan nan nan nan nan nan nan 0 nan nan nan nan 2 2 23 9 nan nan nan nan nan nan nan 0 nan nan nan nan nan nan nan nan nan nan nan nan nan nan nan nan 4 1 1 0 2 1 1 4 16 17 17 17 13 13 8 4 nan nan nan
1 2 2 0 0 nan nan nan nan nan nan nan nan nan nan nan nan nan nan nan nan nan nan nan nan nan 6 17 1 1 nan nan nan nan nan nan nan nan 0 6 6 9 nan nan nan nan nan nan nan nan nan nan nan nan nan nan nan nan nan nan nan nan nan nan nan nan 3 5 2 2 3 2 0 0 0 3 2 2 2 0 0 4 4 0 0 nan
nan 0 1 1 1 0 nan nan nan nan nan nan nan nan nan nan nan nan nan nan nan nan nan nan nan nan nan nan nan nan 1 nan nan nan nan nan nan nan 1 0 0 nan nan nan nan nan nan nan nan nan nan nan nan nan nan nan nan nan nan nan nan nan nan nan nan 1 9 nan 1 1 1 nan nan nan nan nan 0 0 nan nan nan 0 0 nan nan nan
1 1 1 5 5 nan nan nan nan nan nan nan 0 0 nan nan nan nan nan nan nan nan nan nan nan nan nan nan nan nan nan nan nan nan nan nan 0 0 nan nan nan nan nan nan nan 0 nan nan nan nan nan nan nan nan nan nan nan nan 1 nan nan nan nan nan nan nan 0 nan nan nan nan nan nan nan nan nan 0 0 nan nan nan nan nan nan nan nan
6 1 1 nan nan nan nan nan nan nan nan nan nan nan nan nan nan nan nan nan nan nan nan nan nan nan nan nan nan nan nan nan 0 0 nan nan nan nan nan nan nan nan 0 0 0 nan nan nan nan nan nan nan nan nan nan nan nan 2 4 nan nan nan nan nan nan nan nan nan nan nan 0 0 nan nan nan nan nan nan nan nan nan nan nan nan nan nan
15 6 0 nan nan nan nan nan nan nan nan nan nan nan nan nan nan nan nan nan nan nan nan nan nan nan nan nan nan nan nan nan nan nan nan nan nan nan nan 0 0 3 nan nan nan 0 0 0 0 nan nan nan nan nan nan nan nan 0 0 nan nan nan nan nan nan nan nan nan nan nan 1 nan nan nan nan nan nan nan nan nan nan 0 nan nan nan nan
4 0 nan nan nan nan nan nan nan nan nan nan nan nan nan nan nan nan nan nan nan nan nan nan nan nan nan nan nan nan nan nan nan nan nan nan nan nan 0 2 2 4 4 7 7 4 3 6 6 1 nan nan nan nan nan nan nan nan nan nan nan nan nan nan nan nan nan nan nan nan nan nan nan nan nan nan nan nan nan nan nan 1 1 nan nan nan
1 nan nan nan nan nan nan nan nan nan nan nan nan nan nan nan nan nan nan nan nan nan nan nan nan nan nan nan nan nan nan nan nan nan nan 2 3 3 1 nan nan nan nan 7 7 8 6 6 6 1 nan nan nan nan nan nan nan nan nan nan nan nan nan nan nan nan nan nan nan nan nan nan nan nan nan nan nan nan nan nan nan nan nan nan nan nan
nan nan nan nan nan nan nan nan nan nan nan nan nan nan nan nan nan nan nan nan nan nan nan nan nan nan nan nan 0 0 nan nan nan nan nan 12 23 23 nan nan nan nan nan 5 5 6 8 4 4 1 nan nan nan nan nan nan nan nan nan 2 2 8 2 nan nan nan nan nan nan nan nan nan nan nan nan nan nan nan nan nan nan nan nan nan nan nan
nan nan nan nan nan nan nan nan nan nan nan nan nan nan nan nan nan nan nan nan nan nan nan nan nan nan nan 1 0 0 nan nan 0 0 0 nan nan nan nan nan nan nan nan 0 0 1 1 2 2 3 1 nan nan nan nan nan nan nan 2 7 7 2 nan nan nan nan nan nan nan nan nan nan nan nan nan nan nan nan nan nan nan nan nan nan nan nan
nan nan nan nan nan nan nan nan nan nan nan nan nan nan nan nan nan nan nan nan nan nan nan nan nan nan 0 0 nan nan nan 1 6 6 4 nan nan nan nan nan nan nan nan nan nan nan nan nan nan 1 0 nan nan nan nan nan nan nan 0 0 0 nan nan nan nan nan nan nan nan nan nan nan nan nan nan nan nan nan nan nan nan nan nan nan nan nan
nan nan nan nan nan nan nan nan nan nan nan nan nan nan nan nan nan nan nan nan nan nan 0 nan nan nan nan nan 0 0 2 5 9 9 5 nan nan nan nan nan nan nan nan nan nan nan nan nan nan nan nan nan nan nan nan nan nan nan nan nan nan nan nan nan nan nan nan nan nan nan nan nan nan nan nan nan nan nan nan nan nan nan nan nan nan nan
nan nan nan nan nan nan nan nan nan nan nan nan nan nan nan nan 17 17 nan nan nan nan nan nan nan 0 nan nan 1 1 7 10 7 7 3 nan nan nan nan nan nan nan nan nan nan nan nan nan nan nan nan nan nan nan nan nan nan nan nan nan nan nan nan nan nan nan nan nan nan nan nan nan nan nan nan nan nan nan nan nan nan nan nan nan nan nan
nan nan nan nan nan nan nan nan nan nan nan nan nan nan nan nan nan nan nan nan nan nan nan nan nan 0 0 0 1 1 5 4 4 4 1 nan nan nan nan nan nan nan nan nan nan nan nan nan nan 1 12 7 nan nan nan nan nan nan nan nan nan nan nan nan nan nan nan nan nan nan nan nan nan nan nan nan nan nan nan nan nan nan nan nan nan nan
nan nan nan nan nan nan nan nan nan nan nan nan nan nan nan nan nan nan nan nan nan nan nan nan nan 0 0 0 1 1 4 0 2 2 1 nan nan nan nan nan nan nan nan nan nan nan nan nan nan nan nan 13 2 2 nan nan nan nan nan nan nan nan nan nan nan nan nan nan nan nan nan nan nan nan nan nan nan nan nan nan nan nan nan nan nan nan
CIN
nan nan nan nan nan nan nan nan nan nan nan -32 nan nan nan -18 nan nan nan -40 -40 nan nan nan nan nan -66 -1 -0 -0 -0 -0 -0 -0 -0 -0 -0 -0 -0 -0 -0 -0 -0 -0 -0 -0 -0 -0 -0 -0 -0 -0 -0 -0 -0 -0 -0 -0 -0 -0 -0 -0 -0 -0 -0 -0 -0 -0 -0 -0 -0 -0 -0 -0 -0 -0 -0 -0 -0 -0 -0 -0 -0 -0 -0 -0
nan nan nan nan nan nan nan nan nan nan -26 -23 nan nan nan nan nan nan nan nan nan nan nan nan nan nan nan -52 -0 -0 -0 -0 -0 -0 -0 -0 -0 -0 -0 -0 -0 -0 -0 -0 -0 -0 -0 -0 -0 -0 -0 -0 -0 -0 -0 -0 -0 -0 -0 -0 -0 -0 -0 -0 -0 -0 -0 -0 -0 -0 -0 -0 -0 -0 -0 -0 -0 -0 -0 -0 -0 -0 -0 -0 -0 -0
nan nan -22 -44 -44 -36 -21 -38 -42 -42 -43 nan nan nan nan nan nan nan nan nan nan nan nan nan nan nan nan nan -0 -0 -0 -0 -0 -0 -0 -0 -0 -0 -0 -0 -0 -0 -0 -0 -0 -0 -0 -0 -0 -0 -0 -0 -0 -0 -0 -0 -0 -0 -0 -0 -0 -0 -0 -0 -0 -0 -0 -0 -0 -0 -0 -0 -0 -0 -0 -0 -0 -0 -0 -0 -0 -0 -0 -0 -0 -0
-20 -4 -8 -22 -22 -25 -13 -23 nan nan nan nan nan nan nan nan nan nan nan nan nan nan nan nan nan nan nan nan -1 -1 -0 -0 -0 -0 -0 -0 -0 -0 -0 -0 -0 -0 -0 -0 -0 -0 -0 -0 -0 -0 -0 -0 -0 -0 -0 -0 -0 -0 -0 -0 -0 -0 -0 -0 -0 -0 -0 -0 -0 -0 -0 -0 -0 -0 -0 -0 -0 -0 -0 -0 -0 -0 -0 -0 -0 -0
-16 -8 -14 -21 -21 nan -19 nan nan nan nan nan nan nan nan nan nan nan nan nan nan nan nan nan nan nan nan nan -24 -24 -0 -0 -0 -0 -0 -0 -0 -0 -0 -0 -0 -0 -0 -0 -0 -0 -0 -0 -0 -0 -0 -0 -0 -0 -0 -0 -0 -0 -0 -0 -0 -0 -0 -0 -0 -0 -0 -0 -0 -0 -0 -0 -0 -0 -0 -0 -0 -0 -0 -0 -0 -0 -0 -0 -0 -0
-17 -22 nan nan nan nan nan nan nan nan nan nan nan nan nan nan nan nan nan nan nan nan nan nan nan nan nan nan -10 -10 -0 -0 -0 -0 -0 -0 -0 -0 -0 -0 -0 -0 -0 -0 -0 -0 -0 -0 -0 -0 -0 -0 -0 -0 -0 -0 -0 -0 -0 -0 -0 -0 -0 -0 -0 -0 -0 -0 -0 -0 -0 -0 -0 -0 -0 -0 -0 -0 -0 -0 -0 -0 -0 -0 -0 -0
-18 nan nan nan nan nan nan nan -18 -18 nan nan nan nan nan nan nan nan nan nan nan nan nan nan nan nan nan nan -0 -0 -0 -0 -0 -0 -0 -0 -0 -0 -0 -0 -0 -0 -0 -0 -0 -0 -0 -0 -0 -0 -0 -0 -0 -0 -0 -0 -0 -0 -0 -0 -0 -0 -0 -0 -0 -0 -0 -0 -0 -0 -0 -0 -0 -0 -0 -0 -0 -0 -0 -0 -0 -0 -0 -0 -0 -0
-18 nan nan nan nan nan nan nan nan nan nan nan -22 -22 -7 -2 -5 -5 -19 nan nan nan nan nan nan nan nan nan nan nan nan nan -18 -18 -0 -0 -0 -0 -0 -0 -0 -0 -0 -0 -0 -0 -0 -0 -0 -0 -0 -0 -0 -0 -0 -0 -0 -0 -0 -0 -0 -0 -0 -0 -0 -0 -0 -0 -0 -0 -0 -0 -0 -0 -0 -0 -0 -0 -0 -0 -0 -0 -0 -0 -0 -0
-16 nan nan nan nan nan nan nan nan nan nan -24 -6 -6 -5 -2 -7 -7 -24 nan nan nan nan nan nan nan nan nan nan nan -19 -1 -0 -0 -0 -12 -34 -34 -0 -0 -0 -0 -0 -0 -0 -0 -0 -0 -0 -0 -0 -0 -0 -0 -0 -0 -0 -0 -0 -0 -0 -1 -0 -0 -0 -0 -0 -0 -0 -0 -0 -0 -0 -0 -0 -0 -0 -0 -0 -0 -0 -0 -0 -0 -0 -0
nan nan nan nan nan nan nan nan nan nan -52 -1 -0 -0 -3 -10 -20 -20 nan nan nan nan nan nan nan nan nan nan nan nan -14 -0 -0 -0 -0 -0 -0 -0 -0 -0 -0 -0 -0 -0 -0 -0 -0 -0 -0 -0 -0 -0 -0 -0 -0 -0 -0 -0 -0 -0 -0 -0 -0 -0 -0 -0 -0 -0 -0 -0 -0 -0 -0 -0 -0 -0 -0 -0 -0 -0 -0 -0 -0 -0 -0 -0
nan nan nan nan nan nan nan nan -8 -8 -2 -16 nan nan nan nan nan nan nan nan nan nan nan nan nan nan nan nan nan nan -6 -19 nan nan -11 -1 -0 -0 -0 -0 -0 -0 -0 -0 -0 -0 -0 -0 -0 -0 -0 -0 -0 -0 -0 -0 -0 -0 -0 -0 -0 -0 -0 -0 -0 -0 -0 -0 -0 -0 -0 -0 -0 -0 -0 -0 -0 -0 -0 -0 -0 -0 -0 -0 -0 -0
nan nan nan nan nan nan -40 -6 -5 -5 nan nan nan nan nan nan nan nan nan nan nan nan nan nan nan nan nan nan -11 -11 -17 nan nan nan nan nan -43 -43 -26 -26 -26 -9 -5 -0 -0 -0 -0 -0 -0 -0 -0 -0 -0 -0 -0 -0 -0 -0 -0 -0 -0 -0 -0 -0 -0 -0 -0 -0 -0 -0 -0 -0 -0 -0 -0 -0 -0 -0 -0 -0 -0 -0 -0 -0 -0 -0
nan nan nan nan nan -20 -2 -6 nan nan nan nan nan nan nan nan nan nan nan nan nan nan nan nan nan nan nan -28 -11 -11 nan nan nan nan nan nan nan nan -69 -53 -53 -53 -49 -29 -29 -25 -0 -0 -0 -0 -0 -0 -0 -0 -0 -0 -0 -0 -0 -0 -0 -0 -0 -0 -0 -0 -0 -0 -0 -0 -0 -0 -0 -0 -0 -0 -0 -0 -0 -0 -0 -0 -0 -0 -0 -0
nan nan -23 -12 -12 -9 -27 nan nan nan nan nan nan nan nan nan nan nan nan nan nan nan nan nan nan nan -21 -14 -28 -28 nan nan nan nan nan nan nan nan -65 -40 -40 -38 -38 -37 -37 nan -6 -2 -2 -4 -0 -0 -0 -0 -0 -0 -0 -0 -0 -0 -0 -0 -0 -0 -0 -0 -0 -0 -0 -0 -0 -0 -0 -0 -0 -0 -0 -0 -0 -0 -0 -0 -0 -0 -0 -0
nan -16 -8 -10 -10 -34 nan nan nan nan nan nan nan nan nan nan nan nan nan nan nan nan nan nan nan -9 -12 -21 nan nan nan nan nan nan nan nan nan nan -55 nan nan nan nan nan nan nan -3 -12 -12 -30 -27 -18 -14 -14 -8 -0 -0 -0 -0 -0 -0 -0 -0 -0 -0 -0 -0 -0 -0 -0 -0 -0 -0 -0 -0 -0 -0 -0 -0 -0 -0 -0 -0 -0 -0 -0
-16 -10 -19 nan nan nan nan nan nan nan nan nan nan nan nan nan nan nan nan nan nan -14 -8 -2 -2 -6 nan nan nan nan nan nan nan nan nan nan nan nan nan nan nan nan nan nan nan -15 -22 nan nan nan nan -12 -0 -0 -0 -0 -0 -0 -0 -0 -0 -0 -0 -0 -0 -0 -0 -0 -0 -0 -0 -0 -0 -0 -0 -0 -0 -0 -0 -0 -0 -0 -0 -0 -0 -0
-9 -23 nan nan nan nan nan nan nan nan nan -26 -27 -27 -24 -30 -24 -24 -11 -8 -8 -3 -0 -2 -2 nan nan nan nan nan nan nan nan nan nan nan nan nan nan nan nan nan nan -19 -19 nan nan nan nan nan -34 -0 -0 -0 -0 -0 -0 -0 -0 -0 -0 -0 -0 -0 -0 -0 -0 -0 -0 -0 -0 -0 -0 -0 -0 -0 -0 -0 -0 -0 -0 -0 -0 -0 -0 -0
nan nan nan nan nan nan nan nan nan nan -38 -18 -17 -17 -23 -30 -17 -17 -3 -1 -1 -15 nan nan nan nan nan nan nan nan nan nan nan nan nan nan nan nan nan nan nan nan nan nan nan nan nan nan nan nan -10 -0 -0 -0 -0 -0 -0 -0 -0 -0 -0 -0 -0 -0 -0 -0 -0 -0 -0 -0 -0 -0 -0 -0 -0 -0 -0 -0 -0 -0 -0 -0 -0 -0 -0 -0
-6 nan nan nan nan nan nan -22 -18 -18 -14 -12 -10 -10 -14 -14 -6 -6 -2 -19 -19 nan nan nan nan nan nan nan nan nan nan nan -21 -21 nan nan nan nan nan nan nan nan nan nan nan nan nan -25 -25 -2 -0 -0 -0 -0 -0 -0 -0 -0 -0 -0 -0 -0 -0 -0 -0 -0 -0 -0 -0 -0 -0 -0 -0 -0 -0 -0 -0 -0 -0 -0 -0 -0 -0 -0 -0 -0
-10 -18 -20 -21 -21 -24 -20 -15 -11 -11 -8 -11 -12 -12 -9 -6 -4 -4 -22 nan nan nan nan nan nan nan nan nan nan nan nan nan -17 -17 nan nan nan nan nan nan nan -12 -17 nan nan nan -26 -5 -5 -0 -0 -0 -0 -0 -0 -0 -0 -0 -0 -0 -0 -0 -0 -0 -0 -0 -0 -0 -0 -0 -0 -0 -0 -0 -0 -0 -0 -0 -0 -0 -0 -0 -0 -0 -0 -0
-16 -20 -22 -26 -26 -21 -15 -14 -14 -14 -11 -15 -15 -15 -7 -4 nan nan nan nan nan nan nan nan nan nan nan -16 -19 -19 nan -27 -10 -10 -9 nan nan nan -14 -12 -12 -17 -25 -25 -25 -14 -3 nan nan nan -5 -0 -0 -0 -0 -0 -0 -0 -0 -0 -0 -0 -0 -0 -0 -0 -0 -0 -0 -0 -0 -0 -0 -0 -0 -0 -0 -0 -0 -0 -0 -0 -0 -0 -0 -0
-19 -17 -25 -37 -37 -27 -8 -24 -17 -17 -17 -21 -8 -8 -3 nan nan nan nan nan nan nan nan nan nan -13 -12 -11 -15 -15 -34 nan -13 -13 -7 -5 -4 -4 -17 -38 -38 -42 -21 -11 -11 -16 -37 nan nan nan -3 -0 -0 -0 -0 -0 -0 -0 -0 -0 -0 -0 -0 -0 -0 -0 -0 -0 -0 -0 -0 -0 -0 -0 -0 -0 -0 -0 -0 -0 -0 -0 -0 -0 -0 -0
-24 -20 -29 -46 -46 -39 -21 -28 -28 -28 -15 -10 -2 -2 -11 nan nan nan nan nan nan -12 -11 -11 -11 -11 -12 -12 -24 -24 -43 nan -22 -22 -7 -1 -3 -3 -42 -59 -59 -23 -6 -8 -8 -47 nan nan nan nan -11 -0 -0 -0 -0 -0 -0 -0 -0 -0 -0 -0 -0 -0 -0 -0 -0 -0 -0 -0 -0 -0 -0 -0 -0 -0 -0 -0 -0 -0 -0 -0 -0 -0 -0 -0
-31 -42 nan nan nan nan -39 -26 -42 -42 -18 -6 -14 -14 -29 nan nan nan nan -19 -19 -16 -13 -12 -12 -11 -17 -22 -31 -31 -44 -35 -11 -11 -1 -1 -17 -17 -48 -34 -34 -5 -8 -35 -35 nan nan nan nan -56 -31 -0 -0 -0 -0 -0 -0 -0 -0 -0 -0 -0 -0 -0 -0 -0 -0 -0 -0 -0 -0 -0 -0 -0 -0 -0 -0 -0 -0 -0 -0 -0 -0 -0 -0 -0
nan nan nan nan nan -26 -13 -12 -5 -5 -9 -10 -12 -12 -26 -21 -10 -10 -17 -26 -26 -18 -12 -9 -9 -7 -12 -3 -14 -14 -38 -38 -17 -17 -2 -6 -18 -18 -26 -18 -18 -9 -19 nan nan nan -42 -41 -41 -49 -36 -7 -0 -0 -0 -0 -0 -0 -0 -0 -0 -0 -0 -0 -0 -0 -0 -0 -0 -0 -0 -0 -0 -0 -0 -0 -0 -0 -0 -0 -0 -0 -0 -0 -0 -0
-2 -4 -5 -1 -1 -0 -0 -0 -0 -0 -0 -7 -15 -15 -24 -20 -20 -20 -17 -15 -15 -11 -8 -7 -7 -6 -8 -10 -9 -9 -24 -36 -20 -20 -4 -3 -7 -7 -16 -23 -23 -38 -23 nan nan -41 -34 -30 -30 -39 -41 -21 -0 -0 -0 -0 -0 -0 -0 -0 -0 -0 -0 -0 -0 -0 -0 -0 -0 -0 -0 -0 -0 -0 -0 -0 -0 -0 -0 -0 -0 -0 -0 -0 -0 -0
-0 -0 -0 -0 -0 -0 -0 -0 -0 -0 -0 -0 -1 -1 -16 -22 -18 -18 -8 -7 -7 -7 -4 -5 -5 -6 -6 -8 -12 -12 -17 -17 -17 -17 -11 -2 -1 -1 -10 -26 -26 -23 -15 -26 -26 -34 -19 -17 -17 -24 -29 -47 -3 -3 -0 -0 -0 -0 -0 -0 -0 -0 -0 -0 -0 -0 -0 -0 -0 -0 -0 -0 -0 -0 -0 -0 -0 -0 -0 -0 -0 -0 -0 -0 -0 -0
-0 -0 -0 -0 -0 -0 -0 -0 -0 -0 -0 -0 -0 -0 -0 -13 -9 -9 -4 -6 -6 -6 -5 -4 -4 -3 -3 -5 -7 -7 -16 -20 -36 -36 -24 -3 -3 -3 -13 -23 -23 -27 -17 -17 -17 -19 -3 -9 -9 -16 -29 nan nan nan -0 -0 -0 -0 -0 -0 -0 -0 -0 -0 -0 -0 -0 -0 -0 -0 -0 -0 -0 -0 -0 -0 -0 -0 -0 -0 -0 -0 -0 -0 -0 -7
-0 -0 -0 -0 -0 -0 -0 -0 -0 -0 -0 -0 -0 -0 -0 -12 -7 -7 -5 -8 -8 -6 -4 -1 -1 -2 -1 -4 -8 -8 -16 -17 -27 -27 -27 -5 -5 -5 -18 -21 -21 -25 -14 -12 -12 -16 -18 -20 -20 -43 nan nan nan nan -12 -0 -0 -0 -0 -0 -0 -0 -0 -0 -0 -0 -0 -0 -0 -0 -0 -0 -0 -0 -0 -0 -0 -0 -0 -0 -0 -0 -0 -0 -0 -4
-2 -0 -0 -0 -0 -0 -0 -0 -0 -0 -0 -0 -0 -0 -0 -11 -10 -10 -11 -12 -12 -6 -2 -1 -1 -1 -1 -5 -10 -10 -12 -19 -33 -33 -27 -10 -9 -9 nan -18 -18 -15 -11 -9 -9 -10 -18 -42 -42 nan nan nan nan nan nan -13 -13 -7 -0 -0 -0 -0 -0 -0 -0 -0 -0 -0 -0 -0 -0 -0 -0 -0 -0 -0 -0 -0 -0 -0 -0 -0 -0 -2 -2 -3
nan nan nan nan nan -19 -30 nan -10 -10 -0 -0 -0 -0 -0 -15 -17 -17 -14 -12 -12 -6 -2 -1 -1 -1 -3 -5 -6 -6 -8 -18 -30 -30 -35 nan -6 -6 -9 -12 -12 -16 -17 -6 -6 -3 -6 -40 -40 nan nan nan nan nan nan nan nan nan nan -7 -7 -0 -0 -0 -0 -0 -0 -0 -0 -0 -0 -0 -0 -0 -0 -0 -0 -0 -0 -0 -0 -0 -1 -1 -1 -2
nan nan nan -27 -27 -24 -23 -26 -39 -39 -42 -27 -25 -25 -1 -1 -6 -6 -15 -14 -14 -8 -4 -3 -3 -2 -2 -2 -2 -2 -5 nan -10 -10 -14 nan -10 -10 -14 nan nan -10 nan -14 -14 -6 -9 -18 -18 nan nan nan nan nan nan nan nan nan nan nan nan nan -0 -0 -0 -0 -0 -0 -0 -0 -0 -0 -0 -0 -0 -0 -0 -0 -0 -0 -0 -0 -0 -1 -1 -2
nan nan nan -22 -22 -25 -24 -32 -37 -37 -26 -32 -29 -29 -28 -14 -0 -0 -9 -15 -15 -12 -8 -4 -4 -3 -3 -3 -5 -5 -9 nan -3 -3 -2 nan nan nan nan nan nan nan nan -11 -11 -9 -21 nan nan nan nan nan nan nan nan nan nan -28 nan nan nan nan -15 -6 -6 -6 -1 -0 -0 -0 -0 -0 -0 -0 -0 -0 -0 -0 -0 -0 -0 -0 -0 -0 -0 -2
nan nan -15 -15 -15 -23 -34 nan nan nan -25 -24 -12 -12 -15 -18 -15 -15 -10 -15 -15 -17 -19 -11 -11 -8 -5 -8 -6 -6 nan nan -0 -0 -2 nan nan nan nan nan nan nan -5 -6 -6 -14 -35 nan nan nan nan nan nan nan nan nan nan nan nan nan nan nan nan nan nan nan -6 -3 -5 -5 -1 -0 -0 -0 -0 -0 -0 -0 -0 -0 -0 -0 -0 -1 -1 nan
nan -12 -7 -17 -17 -25 -26 -30 nan nan -19 -20 -21 -21 -17 -19 -24 -24 -20 -16 -16 -16 nan nan nan nan nan nan nan nan nan nan -6 -6 -0 nan nan nan nan nan nan nan -3 -4 -4 -21 nan nan nan nan nan nan nan nan nan nan nan nan nan nan nan nan nan nan nan nan nan nan -4 -4 -3 -1 -0 -0 -0 -0 -0 -0 -0 -0 -0 -0 -0 -12 -12 nan
nan -9 -7 -17 -17 -22 -20 -14 nan nan nan nan nan nan nan nan nan nan nan nan nan -12 -7 -13 -13 nan nan nan nan nan nan nan -6 -6 -1 nan nan nan nan nan nan -2 -2 -9 -9 nan nan nan nan -4 -2 -5 nan nan nan nan nan nan nan nan nan nan nan nan nan nan nan -4 -1 -1 -1 -0 -0 -0 -0 -0 -0 -0 -0 -0 -0 -0 nan -27 -27 -1
-7 -6 -9 -19 -19 nan -13 nan nan nan nan nan nan nan nan nan nan nan nan nan nan nan nan -7 -7 -8 -5 nan nan nan nan nan nan nan -9 nan nan nan nan -2 -2 -0 -6 nan nan nan nan nan nan nan -9 nan nan nan nan nan nan nan nan nan nan nan nan nan nan nan nan -1 -0 -0 -0 -0 -0 -0 -0 -0 -0 -0 -0 -0 -0 -0 -0 nan nan nan
-6 -7 -11 -19 -19 nan nan nan nan nan nan nan nan nan nan nan nan nan nan nan nan nan nan nan nan nan -9 -4 -15 -15 nan nan nan nan nan nan nan nan -0 -1 -1 -5 nan nan nan nan nan nan nan nan nan nan nan nan nan nan nan nan nan nan nan nan nan nan nan nan -3 -0 -0 -0 -0 -0 -0 -0 -0 -0 -0 -0 -0 -1 -1 -0 -0 -0 -0 nan
nan -13 -14 -12 -12 -16 nan nan nan nan nan nan nan nan nan nan nan nan nan nan nan nan nan nan nan nan nan nan nan nan -8 nan nan nan nan nan nan nan -2 -4 -4 nan nan nan nan nan nan nan nan nan nan nan nan nan nan nan nan nan nan nan nan nan nan nan nan -8 -1 nan -0 -0 -0 nan nan nan nan nan -0 -0 nan nan nan -0 -0 nan nan nan
-8 -10 -12 -6 -6 nan nan nan nan nan nan nan -8 -8 nan nan nan nan nan nan nan nan nan nan nan nan nan nan nan nan nan nan nan nan nan nan -10 -10 nan nan nan nan nan nan nan -33 nan nan nan nan nan nan nan nan nan nan nan nan -1 nan nan nan nan nan nan nan -4 nan nan nan nan nan nan nan nan nan -0 -0 nan nan nan nan nan nan nan nan
-4 -10 -12 nan nan nan nan nan nan nan nan nan nan nan nan nan nan nan nan nan nan nan nan nan nan nan nan nan nan nan nan nan -15 -15 nan nan nan nan nan nan nan nan -25 -26 -26 nan nan nan nan nan nan nan nan nan nan nan nan -0 -0 nan nan nan nan nan nan nan nan nan nan nan -0 -1 nan nan nan nan nan nan nan nan nan nan nan nan nan nan
-0 -3 -9 nan nan nan nan nan nan nan nan nan nan nan nan nan nan nan nan nan nan nan nan nan nan nan nan nan nan nan nan nan nan nan nan nan nan nan nan -32 -32 -12 nan nan nan -5 -5 -4 -4 nan nan nan nan nan nan nan nan -2 -0 nan nan nan nan nan nan nan nan nan nan nan -0 nan nan nan nan nan nan nan nan nan nan -0 nan nan nan nan
-4 -7 nan nan nan nan nan nan nan nan nan nan nan nan nan nan nan nan nan nan nan nan nan nan nan nan nan nan nan nan nan nan nan nan nan nan nan nan -26 -3 -3 -2 -2 -1 -1 -2 -3 -2 -2 -7 nan nan nan nan nan nan nan nan nan nan nan nan nan nan nan nan nan nan nan nan nan nan nan nan nan nan nan nan nan nan nan -0 -0 nan nan nan
-5 nan nan nan nan nan nan nan nan nan nan nan nan nan nan nan nan nan nan nan nan nan nan nan nan nan nan nan nan nan nan nan nan nan nan -19 -17 -17 -13 nan nan nan nan -1 -1 -0 -2 -2 -2 -8 nan nan nan nan nan nan nan nan nan nan nan nan nan nan nan nan nan nan nan nan nan nan nan nan nan nan nan nan nan nan nan nan nan nan nan nan
nan nan nan nan nan nan nan nan nan nan nan nan nan nan nan nan nan nan nan nan nan nan nan nan nan nan nan nan -17 -17 nan nan nan nan nan -7 -1 -1 nan nan nan nan nan -2 -2 -1 -0 -1 -1 -5 nan nan nan nan nan nan nan nan nan -1 -1 -1 -4 nan nan nan nan nan nan nan nan nan nan nan nan nan nan nan nan nan nan nan nan nan nan nan
nan nan nan nan nan nan nan nan nan nan nan nan nan nan nan nan nan nan nan nan nan nan nan nan nan nan nan -9 -15 -15 nan nan -15 -15 -28 nan nan nan nan nan nan nan nan -5 -5 -3 -1 -1 -1 -2 -4 nan nan nan nan nan nan nan -0 -0 -0 -1 nan nan nan nan nan nan nan nan nan nan nan nan nan nan nan nan nan nan nan nan nan nan nan nan
nan nan nan nan nan nan nan nan nan nan nan nan nan nan nan nan nan nan nan nan nan nan nan nan nan nan -9 -12 nan nan nan -8 -8 -8 -14 nan nan nan nan nan nan nan nan nan nan nan nan nan nan -2 -2 nan nan nan nan nan nan nan -0 -0 -0 nan nan nan nan nan nan nan nan nan nan nan nan nan nan nan nan nan nan nan nan nan nan nan nan nan
nan nan nan nan nan nan nan nan nan nan nan nan nan nan nan nan nan nan nan nan nan nan -1 nan nan nan nan nan -13 -13 -6 -4 -5 -5 -9 nan nan nan nan nan nan nan nan nan nan nan nan nan nan nan nan nan nan nan nan nan nan nan nan nan nan nan nan nan nan nan nan nan nan nan nan nan nan nan nan nan nan nan nan nan nan nan nan nan nan nan
nan nan nan nan nan nan nan nan nan nan nan nan nan nan nan nan -0 -0 nan nan nan nan nan nan nan -10 nan nan -8 -8 -2 -2 -4 -4 -8 nan nan nan nan nan nan nan nan nan nan nan nan nan nan nan nan nan nan nan nan nan nan nan nan nan nan nan nan nan nan nan nan nan nan nan nan nan nan nan nan nan nan nan nan nan nan nan nan nan nan nan
nan nan nan nan nan nan nan nan nan nan nan nan nan nan nan nan nan nan nan nan nan nan nan nan nan -12 -14 -15 -8 -8 -3 -4 -5 -5 -8 nan nan nan nan nan nan nan nan nan nan nan nan nan nan -4 -2 -2 nan nan nan nan nan nan nan nan nan nan nan nan nan nan nan nan nan nan nan nan nan nan nan nan nan nan nan nan nan nan nan nan nan nan
nan nan nan nan nan nan nan nan nan nan nan nan nan nan nan nan nan nan nan nan nan nan nan nan nan -13 -15 -13 -6 -6 -3 -5 -4 -4 -6 nan nan nan nan nan nan nan nan nan nan nan nan nan nan nan nan -0 -0 -0 nan nan nan nan nan nan nan nan nan nan nan nan nan nan nan nan nan nan nan nan nan nan nan nan nan nan nan nan nan nan nan nan
Wind_Speed
10 11 11 13 13 12 13 15 16 16 15 14 13 13 14 15 15 15 18 18 17 15 14 14 14 15 16 20 23 25 27 28 29 30 31 33 33 34 35 35 35 35 35 35 35 35 35 34 34 34 34 33 33 33 33 33 33 33 33 32 32 32 32 33 33 33 32 31 31 30 30 30 30 30 29 29 28 28 27 27 26 25 24 24 23 23
11 11 11 13 13 13 13 14 15 16 16 15 15 15 15 16 16 15 15 17 16 16 14 14 14 14 15 16 20 24 26 28 29 31 32 33 34 34 35 35 35 35 35 35 34 34 34 34 33 33 33 33 33 33 34 34 34 33 32 31 30 30 31 32 32 33 32 32 31 30 29 29 29 28 28 28 27 27 27 26 26 26 26 25 25 24
11 11 10 11 12 13 13 14 15 15 16 16 16 17 18 19 17 15 14 14 14 14 13 12 12 13 13 14 18 23 25 28 29 31 32 33 34 34 35 35 34 34 34 34 34 33 33 32 32 33 33 33 33 33 34 34 33 33 32 30 29 28 28 29 30 31 31 31 31 30 29 28 27 27 27 27 26 26 26 26 26 25 25 26 25 25
11 11 10 10 10 12 13 14 14 14 14 16 17 18 20 18 16 14 13 13 12 12 12 13 13 12 12 12 15 20 25 27 29 31 32 33 34 35 35 35 34 34 33 33 33 33 32 32 32 32 33 33 33 34 34 33 33 32 31 30 29 28 27 27 28 29 29 30 30 29 29 27 27 26 26 25 25 25 25 25 25 25 25 25 25 25
11 11 10 9 10 11 12 13 14 14 14 15 16 17 17 15 14 12 11 11 12 12 12 12 12 12 11 11 14 19 24 27 29 31 32 33 34 35 35 34 34 33 33 33 33 32 32 32 32 32 33 33 33 33 33 32 32 31 31 30 29 29 28 28 27 27 27 27 28 28 27 27 26 25 25 25 25 25 25 25 24 24 25 25 25 25
11 10 9 9 8 9 10 11 12 13 13 13 14 15 14 13 11 10 10 10 10 11 10 10 11 11 12 12 15 19 24 27 29 30 32 33 34 34 34 33 33 32 33 33 33 32 33 32 33 33 33 33 33 33 31 30 30 29 29 29 29 29 29 28 27 26 26 25 25 26 26 26 26 25 25 25 24 24 24 24 24 24 24 25 25 26
11 9 8 8 8 8 9 10 11 12 12 12 12 12 12 10 9 9 9 10 10 10 10 10 10 11 12 13 16 19 21 24 26 28 30 31 31 31 31 31 31 32 33 33 33 33 33 32 32 33 33 33 33 32 30 28 27 27 27 27 28 28 28 28 27 26 25 24 24 24 25 25 25 25 25 25 25 24 24 23 23 23 24 25 25 26
11 9 7 8 9 9 9 10 11 12 12 12 11 10 8 7 7 8 10 10 10 10 10 10 11 11 11 13 14 16 16 18 19 21 23 24 25 26 27 28 30 32 33 33 33 33 33 32 32 32 33 33 33 32 29 27 26 26 25 25 26 26 26 26 26 26 25 25 25 25 25 25 25 25 25 25 25 24 23 22 22 22 23 24 25 26
10 9 8 9 10 11 11 11 11 11 11 10 8 8 7 7 7 8 10 10 10 9 10 11 12 12 12 12 13 13 14 15 15 15 16 16 17 19 22 25 28 30 32 33 33 33 32 32 32 32 33 33 33 32 30 28 26 26 25 25 25 25 26 27 27 26 26 25 25 26 26 26 26 26 25 25 24 24 23 22 22 22 22 23 24 25
9 9 10 10 10 10 11 11 11 9 8 7 6 6 7 8 9 10 11 11 10 10 10 12 13 13 12 12 12 12 14 15 16 17 18 18 20 22 23 24 25 27 30 31 31 31 31 31 31 32 33 33 33 32 30 28 27 26 25 25 26 26 27 28 28 27 27 26 26 27 27 27 27 26 25 25 24 24 23 23 22 22 22 22 23 24
8 9 10 11 10 10 9 9 8 6 6 6 6 6 7 8 9 11 13 13 13 12 12 12 12 12 12 11 11 11 11 11 12 14 17 19 21 24 24 24 25 26 28 28 28 29 29 30 31 32 32 32 32 31 29 27 26 26 25 26 26 27 28 28 28 28 27 27 27 27 27 27 27 26 25 24 24 23 23 23 23 22 22 22 22 23
8 9 10 10 9 8 7 6 5 4 5 6 7 8 9 9 9 10 13 14 14 14 13 12 11 11 11 11 10 9 9 9 9 10 10 12 14 16 17 17 18 19 21 21 22 24 26 28 30 31 30 30 30 29 28 27 26 25 25 25 26 26 27 28 28 28 27 26 26 26 26 26 26 25 24 23 23 23 23 23 23 22 22 22 22 22
9 9 9 8 7 5 4 4 5 5 7 8 10 11 11 11 10 10 11 13 14 14 13 12 12 11 10 9 7 7 8 9 9 9 8 9 9 9 10 10 11 11 12 13 14 17 21 25 27 27 28 28 28 28 27 26 25 25 25 25 25 26 27 28 28 28 27 26 25 25 24 24 24 23 22 22 22 22 23 23 22 22 22 22 22 22
10 9 8 6 5 5 5 7 8 10 10 10 11 11 12 11 11 11 11 13 13 13 13 12 11 10 7 6 6 7 7 8 8 8 8 8 8 8 8 9 10 10 10 11 12 14 18 19 19 20 23 24 25 25 24 24 24 24 24 25 25 26 27 28 28 27 26 25 25 24 23 23 22 22 22 22 22 22 23 23 23 22 22 22 22 22
10 9 7 7 7 7 8 10 11 11 11 11 11 11 12 12 12 12 12 13 13 12 11 11 10 8 5 5 6 6 7 7 7 8 10 9 9 9 9 10 11 11 11 12 12 14 17 15 14 13 15 18 19 20 21 22 23 24 24 25 26 26 27 27 26 26 26 25 25 24 24 23 23 23 23 23 23 23 23 23 23 23 23 22 22 21
9 7 7 9 9 10 10 10 11 11 12 11 11 11 12 12 12 12 12 13 12 10 8 8 8 7 6 6 6 7 8 7 7 8 11 11 10 9 9 10 11 12 12 12 12 13 13 12 12 12 13 16 19 21 23 23 24 25 26 26 27 27 26 25 25 25 24 24 24 24 24 24 24 24 24 24 24 24 23 23 23 23 23 23 22 21
7 7 8 10 11 11 10 10 10 11 11 11 11 11 11 12 12 12 12 11 9 6 5 6 7 8 8 7 7 6 7 7 8 9 11 12 11 10 9 10 11 13 12 12 12 11 11 11 11 11 11 13 17 20 22 23 24 26 27 27 27 27 26 25 25 25 25 25 25 25 25 25 25 25 25 25 25 25 25 24 24 23 23 23 22 22
7 8 10 10 11 11 10 10 10 10 10 11 11 11 11 11 11 11 10 8 7 7 7 8 8 8 9 9 7 6 6 8 9 10 12 12 12 10 10 10 11 12 12 12 12 11 11 11 10 10 9 15 18 21 23 24 25 26 27 28 27 27 27 27 27 27 27 27 27 27 27 27 27 26 26 26 26 26 26 26 25 24 23 23 22 22
10 10 10 11 11 10 11 10 10 10 10 10 11 11 12 12 11 10 8 7 7 8 10 10 10 9 10 10 10 9 8 8 9 11 12 13 12 11 10 11 11 12 12 12 12 11 9 8 9 10 13 17 20 22 24 25 26 27 27 27 27 27 27 28 29 29 29 29 29 28 28 28 28 27 26 26 26 26 27 27 26 25 23 22 22 21
12 11 10 10 11 11 11 11 11 11 11 11 12 12 13 12 11 9 8 8 8 9 10 10 11 11 10 11 11 10 8 9 10 11 13 13 13 12 10 10 11 11 11 10 10 8 7 6 8 10 15 18 21 23 25 25 26 26 26 26 26 27 28 29 29 29 29 29 28 28 28 28 27 27 26 26 26 26 26 26 26 25 23 22 21 21
13 12 11 10 11 11 11 11 11 12 12 13 13 13 13 11 10 8 7 8 9 10 10 10 11 11 10 11 11 11 9 9 10 11 11 11 11 9 7 7 8 9 10 9 7 5 5 6 7 8 11 17 20 23 24 25 24 24 25 26 27 28 29 30 30 29 29 28 28 27 27 27 26 26 25 25 25 24 24 24 24 23 22 21 21 20
13 13 13 12 12 12 12 12 13 13 14 14 13 12 10 9 8 8 9 10 10 11 11 11 11 11 11 11 11 11 10 8 9 11 10 11 10 8 5 5 6 7 8 6 5 4 6 7 8 9 12 17 21 23 23 23 23 23 24 26 27 29 30 30 30 29 28 27 26 26 25 25 25 25 25 25 24 23 22 22 21 21 20 20 20 20
13 13 13 13 13 12 12 12 12 12 12 12 12 11 9 8 9 10 10 11 11 11 12 12 11 11 11 11 11 10 9 8 9 9 9 10 9 8 5 6 6 7 6 5 5 6 8 8 8 9 12 17 20 21 22 21 22 23 24 26 28 29 30 30 29 28 27 26 24 24 23 24 24 25 25 25 24 23 22 21 21 20 20 20 20 21
13 13 13 12 11 10 9 10 10 10 10 10 10 11 10 10 10 11 11 11 11 11 11 11 11 11 10 10 10 9 8 7 7 7 7 8 9 9 6 6 7 7 7 7 7 8 9 9 9 9 10 14 16 18 19 20 21 23 25 26 28 28 29 29 28 27 26 25 24 24 24 24 25 25 26 25 25 24 23 22 22 21 21 21 22 22
14 13 12 12 12 13 13 13 14 14 13 12 11 11 11 12 13 13 12 11 11 11 11 11 12 11 10 10 10 9 7 7 6 5 6 7 9 9 7 5 6 7 8 8 8 8 9 9 9 9 8 10 13 15 17 19 21 22 24 26 27 27 27 27 27 26 26 26 26 26 26 26 26 26 26 26 25 25 24 23 23 23 23 23 23 24
19 18 18 19 20 22 25 25 25 24 24 20 16 14 13 13 13 12 11 11 10 11 11 12 11 11 9 9 8 8 6 5 4 4 5 6 8 9 6 5 6 7 9 9 8 9 10 10 10 9 7 7 10 13 15 18 20 22 23 24 25 26 26 26 26 26 26 26 26 26 26 27 27 27 27 26 26 25 25 25 25 25 25 25 24 24
25 24 25 25 26 27 28 28 29 29 29 27 24 20 17 13 12 11 11 10 10 10 11 11 11 11 10 9 8 6 5 4 3 4 5 6 7 7 6 6 7 8 11 10 9 10 11 11 10 9 6 5 6 9 14 16 19 20 22 23 24 24 25 26 26 27 26 26 26 26 27 27 27 27 27 27 26 26 26 26 26 26 26 25 22 21
21 22 22 24 25 26 27 27 27 27 27 27 28 26 21 14 11 11 11 10 10 10 11 11 11 11 9 8 7 6 6 5 5 5 5 5 6 7 7 7 8 9 10 10 10 10 11 10 9 7 6 5 5 7 10 14 17 19 20 22 23 24 25 25 26 26 26 25 26 26 27 28 28 28 27 27 27 27 27 27 27 26 25 21 17 14
18 20 22 23 24 25 24 23 23 23 24 26 26 25 19 13 11 10 11 10 10 11 11 11 11 10 9 9 8 8 7 7 6 5 5 6 7 7 8 8 9 9 9 9 9 9 8 7 6 5 4 5 5 6 8 11 13 15 17 19 21 22 23 24 24 24 24 25 26 27 28 28 28 28 28 28 28 28 28 29 28 25 20 16 14 12
15 16 17 18 19 19 18 16 16 18 21 23 24 22 17 12 10 10 10 10 10 11 11 11 11 10 10 10 9 8 7 6 5 5 6 7 7 8 8 8 8 8 7 8 8 7 6 4 4 3 3 5 6 6 6 8 9 10 11 14 16 18 20 21 22 23 23 25 26 27 28 28 28 28 28 28 28 29 29 30 27 22 14 12 11 12
13 13 12 12 12 12 11 11 12 13 16 18 19 17 14 11 10 9 9 9 9 10 11 11 11 10 10 9 8 7 6 5 6 7 7 7 7 8 8 8 8 8 7 7 7 7 7 4 3 3 4 6 7 7 7 8 8 8 8 9 10 12 16 18 19 21 22 24 25 27 27 28 28 28 28 28 28 28 29 29 26 21 13 12 12 12
12 12 11 11 10 10 9 10 10 10 11 12 12 12 12 11 10 9 9 8 8 9 10 10 10 10 10 9 9 8 6 6 8 9 9 8 7 7 8 8 9 9 7 7 8 8 7 5 4 4 5 6 7 7 8 8 7 7 7 7 8 9 13 14 16 17 18 21 23 25 26 27 27 28 28 28 27 27 27 28 26 21 15 13 13 13
12 11 11 10 10 9 9 9 9 9 9 9 9 9 10 10 10 10 9 8 8 8 9 10 10 10 10 10 10 9 8 8 10 12 12 9 7 7 7 8 9 10 9 9 8 7 6 5 5 6 7 7 7 6 7 7 7 6 6 6 6 7 9 11 12 13 15 17 19 20 22 24 25 25 25 25 25 25 25 27 27 25 20 15 14 13
12 12 11 11 10 9 9 9 9 9 9 9 9 9 9 9 9 9 9 8 8 8 9 10 10 10 10 10 10 9 9 9 11 13 13 10 8 7 8 9 10 10 10 8 7 6 5 6 7 8 8 7 6 5 6 6 5 5 4 5 5 6 7 8 9 11 12 13 13 14 16 17 18 19 20 21 21 22 24 26 28 26 21 15 14 13
12 12 11 10 9 9 9 9 9 9 9 9 9 9 9 9 9 9 9 9 9 9 9 9 10 10 11 10 10 10 10 10 12 13 14 11 9 8 8 9 9 9 9 8 6 5 5 7 9 10 9 7 6 5 4 4 4 4 4 5 5 6 6 8 9 10 11 12 11 11 11 11 11 12 13 16 18 20 23 25 25 21 16 14 15 13
11 11 11 10 9 9 10 10 10 10 10 9 9 9 9 9 9 9 9 9 10 10 11 10 10 10 10 11 11 11 11 11 13 14 15 12 11 9 8 8 9 9 9 8 7 7 7 9 10 11 10 8 6 5 4 4 5 5 6 6 6 6 7 8 9 10 10 11 10 10 9 8 8 8 10 14 17 20 22 22 21 17 9 10 15 16
11 10 10 9 9 9 10 10 10 10 10 9 9 9 9 10 10 10 10 10 10 10 11 12 12 12 12 12 11 12 12 12 13 15 15 14 12 10 9 9 9 9 8 8 8 8 8 9 10 9 8 7 6 6 6 7 7 7 7 7 7 7 8 8 9 9 9 10 10 9 8 8 8 8 9 14 16 17 18 18 18 16 10 3 11 17
11 10 10 9 9 9 9 10 10 9 10 10 10 10 10 11 11 11 11 11 11 11 11 11 11 12 15 15 15 15 15 15 16 17 17 15 13 11 10 9 9 9 9 9 9 9 8 8 8 8 6 6 7 8 9 9 9 9 9 8 8 7 8 8 8 8 8 9 9 9 9 8 7 7 8 10 10 10 10 10 11 12 12 6 1 7
10 10 10 10 9 9 9 10 10 10 10 10 10 10 11 11 12 12 11 11 11 11 11 11 11 11 14 15 16 17 17 17 17 17 17 15 13 11 10 9 10 10 10 9 9 8 6 5 6 6 7 7 8 8 8 8 8 9 10 9 9 8 7 7 7 8 8 7 8 9 8 7 7 7 7 7 7 7 7 7 8 9 10 8 5 3
10 10 10 10 10 9 9 10 10 10 10 10 11 11 11 11 11 11 11 10 10 11 12 12 11 11 12 13 14 15 15 14 14 14 14 13 11 10 10 10 10 10 9 8 6 5 4 5 6 7 8 7 8 8 7 7 8 9 11 9 8 7 8 8 8 7 6 6 7 7 7 7 7 7 7 7 7 6 6 6 6 7 7 6 5 4
11 10 10 10 10 10 10 10 10 10 10 10 10 10 9 9 9 9 10 10 10 10 10 11 11 10 11 11 11 12 13 13 13 13 12 12 12 11 10 9 9 8 8 6 5 4 5 6 7 8 7 7 8 8 8 8 10 11 12 10 9 9 10 10 8 7 5 6 6 7 7 7 7 7 7 7 6 6 6 5 5 6 6 5 4 3
11 11 10 10 10 10 10 10 11 11 11 10 10 9 9 9 9 9 10 10 10 10 9 9 10 10 11 11 10 10 10 10 10 11 11 12 12 11 9 8 7 6 6 6 7 7 7 8 8 7 6 6 6 7 7 8 9 10 10 10 10 10 11 9 6 5 5 6 6 7 7 7 6 6 7 6 6 6 6 6 7 7 6 5 4 4
10 10 10 10 10 10 11 11 11 10 10 9 9 9 9 9 9 9 10 10 10 10 10 10 10 10 10 10 9 8 7 7 9 10 11 10 9 8 6 5 5 6 6 7 8 8 8 8 7 6 5 5 5 6 8 9 9 9 9 9 9 8 6 6 5 5 6 6 6 6 6 6 6 5 5 5 5 5 5 7 8 8 8 6 5 5
10 10 10 10 10 10 10 10 9 9 9 9 10 10 9 9 10 10 10 10 10 11 10 10 10 10 10 9 9 8 7 7 8 9 9 8 6 4 4 5 5 6 6 7 7 7 7 7 6 5 4 4 5 6 7 8 8 8 8 9 8 8 6 6 6 7 6 6 6 5 6 6 5 5 4 4 4 5 6 6 7 7 8 7 6 6
10 10 10 10 10 10 10 10 10 9 9 9 10 10 10 10 10 10 9 10 10 10 10 10 9 9 8 8 8 8 8 8 7 6 5 4 4 4 4 5 5 6 6 7 7 7 7 6 6 5 4 4 5 6 7 7 8 8 8 8 8 7 6 6 6 6 6 6 6 6 6 6 5 4 3 4 4 5 6 7 7 8 8 8 7 7
9 10 10 10 10 10 11 10 10 10 10 10 10 10 10 10 9 9 10 10 10 10 10 10 9 8 8 8 8 8 8 8 7 5 4 3 3 3 4 5 6 6 6 6 7 7 7 6 6 5 5 5 5 5 6 6 7 7 7 8 7 6 6 6 5 5 5 5 6 6 7 6 5 3 3 4 5 6 6 7 7 8 8 8 8 8
10 10 10 10 10 10 10 10 10 10 10 10 10 10 10 9 9 9 10 10 10 10 10 9 9 8 8 8 8 8 9 9 8 6 5 4 4 4 4 5 6 7 6 6 7 7 7 6 6 5 4 4 4 4 5 5 6 6 7 7 6 6 5 5 5 5 5 5 5 6 7 6 4 4 4 5 5 6 6 7 7 8 8 7 8 8
11 11 11 10 10 10 10 10 10 10 10 10 10 10 10 10 10 11 10 10 10 10 10 9 9 8 8 8 8 8 9 9 8 7 7 6 5 5 5 5 6 6 7 7 7 7 6 6 5 4 4 4 4 4 5 5 6 6 6 6 6 6 6 5 5 5 5 5 6 6 6 5 4 4 4 5 5 6 7 7 8 8 7 7 7 8
10 11 11 11 10 10 10 10 10 10 11 11 11 10 10 11 12 12 10 10 10 9 9 9 9 8 8 8 8 8 9 9 8 7 7 6 5 5 6 7 7 7 6 6 5 5 4 4 4 3 3 3 3 4 5 5 5 5 5 5 5 5 5 5 5 5 5 6 6 7 6 4 4 4 4 5 6 7 7 8 8 8 8 7 7 8
10 10 10 10 11 11 11 11 11 11 11 11 11 11 10 10 10 10 9 9 9 9 9 8 8 8 8 8 8 8 8 8 8 7 7 5 5 5 6 7 7 8 7 6 5 3 2 1 1 1 3 4 5 5 5 5 5 5 4 4 4 4 4 4 4 5 5 5 6 6 6 5 5 4 4 6 7 8 8 8 9 8 8 8 8 9
11 10 10 10 10 11 11 11 11 11 11 11 11 11 11 10 10 9 9 9 9 9 9 8 7 7 8 8 8 8 8 8 8 8 6 5 5 5 6 7 7 7 7 7 6 4 2 1 1 2 3 6 7 7 5 5 5 5 4 4 4 4 3 3 4 4 5 5 5 5 6 6 6 6 5 6 6 7 8 8 8 8 8 8 8 9
Wind_Direction
297 299 300 300 298 296 295 295 295 295 295 296 296 296 297 296 295 293 292 291 289 287 285 284 285 286 287 289 291 292 294 295 296 296 297 297 297 297 296 296 296 295 295 294 294 294 294 294 294 294 294 294 295 296 298 299 298 298 297 297 296 296 295 292 290 287 284 282 280 279 278 278 277 277 277 278 278 279 279 280 280 279 277 274 270 266
293 293 293 294 294 293 293 295 295 295 296 297 297 297 296 295 293 291 290 287 285 283 283 284 285 286 288 290 292 293 294 294 295 295 295 295 295 295 294 294 293 293 293 293 293 294 294 294 294 294 294 294 295 297 298 298 298 297 296 296 296 296 295 294 292 289 287 283 281 279 278 277 277 277 277 278 279 279 279 279 279 279 278 276 274 271
292 290 289 290 291 292 293 296 296 295 295 295 294 294 293 291 290 288 286 285 283 283 284 287 289 291 291 291 292 293 293 293 293 294 294 294 294 294 294 293 292 292 292 293 294 295 295 295 294 293 293 294 295 297 298 297 297 296 295 295 295 294 293 292 291 289 288 286 283 281 279 278 277 277 277 278 278 278 278 278 277 277 276 275 274 273
287 288 289 290 290 291 293 297 297 296 293 291 290 289 288 287 285 284 283 284 286 288 290 292 293 294 294 292 291 290 290 291 292 293 294 295 295 296 295 294 293 293 293 294 295 295 295 294 293 292 292 294 296 297 297 297 297 297 297 296 295 293 291 290 289 289 288 287 285 283 281 280 278 277 277 277 277 277 277 276 276 276 276 275 274 273
283 284 288 291 293 293 295 296 296 294 291 288 286 285 284 282 283 284 286 290 292 293 294 295 295 294 293 290 287 287 288 289 292 294 296 297 298 298 297 296 296 295 295 295 294 294 294 293 293 293 294 295 296 297 298 299 299 299 299 299 297 295 293 291 289 288 287 287 286 286 284 282 280 278 276 275 275 274 274 275 275 276 276 275 274 273
282 283 288 290 292 295 297 296 294 292 290 286 283 282 282 284 287 291 295 295 294 293 293 293 292 290 287 285 284 285 288 291 294 296 298 299 299 298 298 297 297 296 295 295 294 293 293 294 294 295 296 296 297 298 299 300 300 300 299 299 298 296 294 292 290 288 287 288 288 288 288 285 283 279 277 274 273 272 272 272 273 274 275 275 274 273
282 283 286 288 289 290 293 293 292 289 287 286 285 285 286 290 293 294 292 290 289 289 289 288 286 285 283 282 284 287 290 294 296 298 299 298 298 297 297 297 297 296 296 295 295 294 294 294 295 295 295 296 297 298 299 299 298 296 295 294 294 293 293 292 291 290 290 292 292 292 291 288 285 281 278 275 272 270 270 270 271 272 274 274 274 273
283 283 284 287 289 291 291 289 287 286 285 287 290 293 296 297 294 290 286 285 285 286 288 288 286 285 284 285 287 290 293 295 295 296 296 295 295 296 296 297 297 297 297 296 296 295 294 294 294 295 296 296 297 297 297 295 293 292 290 289 289 290 291 292 292 292 293 294 294 293 291 288 285 282 278 275 272 270 269 269 269 270 272 273 273 273
281 285 285 287 292 295 294 289 285 285 288 292 297 301 302 299 294 290 288 286 286 288 292 293 292 290 289 289 291 292 292 290 290 290 291 291 293 295 296 298 298 297 297 296 295 294 293 294 294 295 296 297 297 296 294 291 289 288 289 290 291 292 294 295 295 296 296 296 295 293 290 287 284 281 279 276 274 272 270 268 268 268 270 272 273 273
278 285 289 291 292 293 292 290 290 292 298 300 300 298 297 296 295 294 293 293 294 295 295 294 294 293 293 292 290 289 289 288 287 288 289 292 294 295 296 296 296 295 294 294 293 293 293 293 294 295 296 296 295 294 292 290 290 292 294 297 297 297 298 299 299 299 299 297 295 293 291 288 286 283 281 279 276 273 271 269 267 266 266 268 270 272
283 287 291 294 294 291 288 290 294 301 308 301 293 287 284 289 295 299 301 301 300 299 296 293 292 292 292 291 290 289 289 289 289 289 290 293 294 295 295 294 293 293 293 293 293 293 293 294 294 295 295 295 294 293 292 293 295 297 298 299 299 298 298 299 299 299 299 298 297 295 294 291 289 287 284 282 279 276 273 270 267 265 264 265 267 269
290 293 296 296 296 295 292 292 294 299 302 299 297 295 294 297 301 304 303 302 300 299 296 292 289 286 286 289 290 291 291 290 290 291 292 293 293 294 294 293 293 292 292 293 293 293 293 293 293 293 293 292 291 291 291 294 296 298 298 297 296 296 296 297 297 297 298 298 297 297 296 295 293 292 290 288 286 283 279 275 270 266 264 264 265 267
294 297 298 296 295 294 295 299 301 303 303 304 305 305 305 307 306 304 299 295 294 293 292 289 287 285 285 287 289 290 290 290 290 292 292 293 294 295 296 294 293 292 292 292 291 291 291 292 292 291 290 289 289 290 291 293 295 295 295 294 294 295 295 296 297 298 298 298 298 297 297 296 296 297 298 297 296 294 289 284 279 273 268 266 265 265
297 298 294 290 290 293 299 304 306 306 307 307 306 306 305 305 303 299 294 291 289 288 288 287 287 287 287 283 282 283 288 291 293 294 293 292 294 297 299 296 293 291 291 290 289 288 288 289 289 288 288 287 288 289 290 292 293 293 293 293 294 294 296 297 298 300 300 299 298 296 294 295 296 297 299 299 298 296 294 290 286 280 274 270 266 264
295 293 288 287 291 297 303 306 306 306 306 306 306 304 302 300 297 294 290 288 287 287 287 285 285 284 281 279 282 288 295 298 299 298 297 295 295 298 299 295 291 289 288 287 286 285 285 285 284 284 284 284 284 286 289 292 293 293 294 295 296 297 298 300 301 301 300 299 297 295 293 295 297 298 299 298 296 294 292 290 288 284 280 274 268 265
289 287 288 294 299 302 305 306 306 305 305 305 303 300 298 295 292 290 287 286 286 287 287 290 292 291 286 286 291 299 305 305 303 300 298 296 295 296 296 292 288 286 284 282 281 281 282 282 282 281 280 283 286 289 291 292 293 295 297 298 299 300 301 301 299 298 295 295 295 295 296 298 300 301 301 298 296 293 289 287 285 283 281 276 271 266
294 297 301 304 305 305 306 305 304 303 303 300 297 293 290 290 289 288 286 284 284 288 294 303 305 303 299 297 299 305 312 309 304 299 296 293 292 292 289 285 282 281 280 279 279 279 280 279 278 279 282 288 291 292 292 293 295 297 300 300 301 301 301 300 299 297 296 296 297 298 299 301 302 302 301 300 298 295 291 287 283 280 279 277 273 269
309 309 309 307 305 304 304 304 302 300 298 294 292 290 289 288 287 285 282 284 292 302 307 305 302 300 301 301 304 312 320 310 303 297 293 290 288 287 283 278 276 276 277 277 276 276 277 278 281 285 290 289 290 291 292 296 298 299 300 301 301 301 302 301 300 300 299 299 300 301 301 301 301 300 300 299 298 297 294 289 284 280 277 277 275 272
307 306 304 302 300 300 300 300 299 298 295 293 293 294 293 290 286 282 281 291 299 303 303 300 298 296 296 297 302 309 317 308 299 294 289 287 286 284 281 278 275 275 275 275 275 277 280 284 287 287 286 286 288 291 294 297 298 299 299 300 300 301 301 301 301 301 300 300 300 300 300 300 298 297 295 295 295 294 293 290 285 280 275 273 273 272
298 297 296 297 298 297 296 295 294 294 293 294 294 294 291 287 284 283 289 297 299 298 298 297 295 295 296 296 300 304 310 304 296 290 285 283 282 282 281 278 276 274 274 274 277 281 286 285 282 281 281 285 288 292 295 296 297 297 298 299 299 300 300 299 299 299 299 299 299 299 298 297 296 294 291 291 290 289 289 287 283 279 273 270 269 269
294 293 292 294 294 294 292 292 291 290 290 292 291 289 285 284 285 289 297 299 299 297 296 294 294 295 298 297 298 300 303 298 291 286 282 279 278 277 276 273 272 273 275 276 278 279 278 276 273 275 279 286 290 292 293 294 294 295 296 297 298 298 298 297 297 297 297 298 298 298 298 298 298 296 295 292 290 288 287 286 284 281 276 272 269 268
292 291 292 291 289 287 286 287 288 288 289 288 286 284 284 289 295 301 303 302 300 299 298 296 295 295 296 293 293 293 293 286 279 277 278 276 275 274 275 278 279 278 277 280 280 276 271 272 275 279 284 288 289 290 290 291 292 293 295 296 296 296 296 296 296 296 296 297 298 299 300 302 303 303 302 299 296 293 290 289 288 286 283 278 273 270
288 288 289 288 285 283 284 286 287 287 287 285 284 285 291 298 301 303 303 303 301 300 298 296 294 292 290 288 286 285 280 270 266 267 271 276 280 285 293 291 286 280 277 282 284 284 282 282 283 285 286 286 286 286 287 289 291 293 294 294 294 294 294 294 294 295 296 297 298 299 301 303 305 305 302 300 297 295 292 291 290 288 286 282 278 275
286 285 286 285 284 283 284 285 286 287 288 287 288 291 295 297 298 299 301 301 301 299 297 295 293 290 287 285 283 280 275 268 264 265 271 279 286 291 297 293 286 282 282 288 293 295 294 291 289 286 283 280 281 282 284 287 290 291 291 292 292 292 292 292 293 294 296 297 298 300 302 302 302 300 298 295 293 291 289 287 286 285 283 281 278 275
287 287 288 289 291 292 292 292 294 295 297 296 296 297 299 300 300 301 301 301 299 297 295 293 291 290 289 288 286 284 280 275 273 273 277 283 286 289 293 294 293 292 293 296 299 298 294 290 286 282 277 275 277 279 282 285 287 288 288 288 289 289 290 292 293 295 297 298 299 300 300 300 299 297 295 292 290 288 285 284 283 281 279 277 275 272
295 296 298 300 301 301 301 301 302 303 303 303 302 303 305 304 304 303 301 299 297 296 294 291 289 288 289 288 287 285 286 284 279 276 279 285 288 290 297 302 301 299 298 298 297 294 290 287 284 281 276 274 276 279 281 283 285 285 285 286 287 288 290 292 294 296 297 298 298 299 299 298 296 294 292 290 288 286 284 282 280 278 276 274 272 269
302 304 305 305 305 305 305 305 305 305 305 305 305 304 305 305 303 300 296 296 296 295 293 291 289 289 289 287 287 289 296 298 291 284 285 288 290 294 303 308 305 301 298 296 293 291 288 285 283 281 278 275 275 278 280 282 283 284 284 285 287 289 291 293 294 295 296 296 296 296 296 295 294 292 290 288 286 284 282 280 278 275 273 271 270 266
309 310 309 307 306 306 305 305 305 305 305 304 304 304 303 303 300 296 294 296 295 293 289 289 290 291 291 291 293 297 304 302 299 298 298 294 292 294 303 306 304 300 297 294 291 287 284 281 279 277 274 273 273 276 279 283 283 284 284 285 286 288 290 291 292 293 294 295 295 296 295 294 292 291 288 286 284 282 280 278 275 273 270 267 263 259
311 309 306 305 305 305 305 305 304 303 302 302 302 302 302 299 294 292 292 293 292 289 286 287 289 291 293 296 299 301 301 299 300 305 309 299 293 293 301 302 300 297 297 294 291 286 279 273 268 265 267 276 280 282 283 285 284 283 283 283 285 286 288 289 291 292 294 295 295 295 295 293 292 290 288 286 284 282 279 276 274 271 265 259 253 249
310 308 305 304 304 303 303 301 299 298 299 299 299 299 298 294 289 286 288 289 288 287 286 289 291 294 298 301 301 299 296 297 304 310 311 300 294 293 299 297 295 295 297 297 294 290 283 269 260 260 275 287 290 290 287 284 281 279 278 280 282 283 286 288 291 293 295 295 295 295 294 292 291 289 288 286 284 281 278 275 272 267 257 249 243 240
309 307 304 303 301 300 298 296 294 295 296 297 297 296 294 290 286 283 284 285 286 286 288 291 294 296 299 300 299 298 296 302 308 309 305 296 291 292 297 294 293 292 293 295 295 295 294 286 274 274 290 294 293 291 286 283 279 276 275 278 279 282 285 289 292 295 296 296 295 294 292 291 290 289 287 286 284 281 278 274 270 264 253 242 236 233
306 304 302 301 299 297 296 295 295 295 296 295 294 292 290 288 287 285 285 285 285 286 288 290 292 293 292 291 291 292 295 300 302 302 298 292 289 289 293 292 291 291 290 287 286 288 294 298 301 302 300 296 294 291 286 283 279 277 277 279 281 284 289 292 295 296 296 295 294 292 291 290 289 288 287 286 284 282 280 277 273 266 252 239 231 227
302 300 299 298 297 296 296 296 297 297 295 294 293 291 290 289 289 288 287 286 285 285 287 289 290 290 288 285 284 285 287 291 294 296 296 293 290 288 290 289 290 290 289 284 279 278 283 295 304 305 300 295 292 290 287 283 280 278 279 282 283 287 292 296 297 296 295 293 292 290 289 289 288 288 288 288 287 287 285 284 280 273 258 239 225 219
299 298 296 295 295 295 296 297 297 297 297 296 295 294 293 292 291 291 289 287 285 284 285 286 288 288 288 286 284 283 284 286 290 294 296 293 289 287 289 288 289 289 289 285 281 279 282 294 299 300 297 294 291 288 287 286 285 285 283 286 287 291 295 299 298 295 292 290 288 286 286 286 287 288 290 292 293 293 293 292 288 280 260 233 214 207
298 296 295 295 296 298 300 301 301 300 299 298 297 296 295 294 293 291 290 288 286 284 283 282 283 284 285 286 286 286 286 288 291 293 294 291 288 286 287 286 288 288 288 287 289 293 296 296 296 295 294 295 294 292 291 294 297 297 293 291 291 293 295 297 295 293 290 288 286 284 283 283 285 288 293 297 299 299 300 301 300 292 263 224 203 193
297 296 295 297 299 302 303 304 304 303 302 300 299 297 297 295 294 292 290 288 286 285 284 281 279 278 279 281 282 284 286 288 290 290 290 287 286 285 285 285 286 287 287 291 296 300 298 294 291 290 292 296 300 304 308 310 310 306 302 298 295 293 292 292 290 288 288 287 286 285 285 286 288 292 298 303 304 304 305 310 315 316 289 215 195 190
297 296 297 299 302 304 305 306 306 305 304 302 301 300 299 297 294 293 291 288 286 284 283 281 279 277 275 275 276 277 280 283 285 285 285 284 282 281 281 281 282 284 288 294 296 295 290 289 289 291 295 300 307 312 316 317 315 311 306 304 300 296 291 289 286 284 285 286 287 289 293 294 297 301 304 307 307 308 310 318 328 337 344 227 193 192
298 298 300 302 304 305 306 306 305 304 304 303 303 301 300 297 295 293 291 289 285 283 282 282 280 278 276 275 274 273 275 277 279 280 281 281 279 277 277 280 283 287 289 289 288 286 284 288 294 301 306 308 310 311 314 315 315 313 309 306 302 296 290 287 285 284 285 288 293 298 301 303 305 308 309 310 310 312 313 321 333 346 357 359 185 185
299 300 302 304 305 306 306 305 304 304 304 303 302 301 299 296 295 293 291 289 287 286 284 284 282 281 279 276 275 275 275 276 277 278 279 278 277 276 277 282 286 287 285 282 280 280 284 294 304 309 312 311 311 311 312 312 312 311 310 308 304 299 293 292 291 290 290 295 301 306 307 309 311 314 313 313 314 317 322 326 338 348 355 358 8 39
301 301 302 304 305 305 305 303 303 303 303 302 301 299 298 297 295 294 293 292 291 289 288 286 283 281 279 278 277 277 277 277 277 277 277 275 274 274 278 281 283 283 282 280 279 284 299 306 305 305 306 306 306 308 310 310 311 311 312 311 309 306 304 302 298 296 295 301 306 309 311 314 317 318 317 316 318 321 327 332 341 349 354 355 1 14
303 303 304 305 305 304 302 302 302 302 302 302 302 301 300 299 299 299 298 297 295 293 292 290 287 285 282 280 279 279 278 276 276 275 274 272 272 273 277 280 282 285 289 293 299 306 309 304 301 299 299 298 299 301 303 305 307 308 309 307 304 303 303 301 298 298 303 308 310 313 316 318 321 322 319 319 320 324 329 336 344 351 356 358 4 13
304 304 305 305 305 304 303 303 303 303 302 302 301 301 300 301 301 301 301 300 299 298 297 296 294 292 290 287 284 281 278 276 275 275 276 276 276 279 282 287 295 305 313 315 312 307 301 296 293 291 290 294 297 299 300 302 303 304 303 301 301 301 300 298 298 305 316 314 314 315 320 321 322 321 319 320 321 327 338 349 357 2 3 1 5 13
304 304 303 303 303 303 303 304 304 304 304 303 302 300 300 300 300 300 300 299 299 298 298 297 295 293 291 290 290 288 286 283 281 281 281 282 283 288 296 308 318 323 322 313 305 299 295 290 286 284 285 290 293 295 297 300 301 300 299 298 300 302 301 307 315 321 321 316 314 316 320 320 318 315 314 317 325 337 349 359 5 8 10 6 6 11
303 302 302 302 303 303 304 305 305 306 305 303 302 300 300 300 300 299 299 297 296 296 297 295 293 291 288 289 292 297 301 297 292 288 285 288 296 312 326 325 320 314 308 301 297 296 296 292 288 285 287 290 291 292 294 296 297 298 297 295 293 291 290 304 314 319 317 316 316 318 320 319 315 311 310 325 344 357 1 3 5 7 10 10 13 17
302 302 303 304 305 306 307 306 306 305 304 302 301 300 300 300 300 299 298 296 296 296 295 295 294 292 290 293 298 304 306 304 301 296 288 294 312 328 332 324 316 310 303 297 294 293 295 294 294 295 296 291 289 289 290 293 295 297 297 299 299 296 295 300 305 309 312 317 320 322 323 319 314 312 324 354 9 13 11 10 9 9 8 11 16 21
304 305 306 307 307 306 306 306 305 305 304 302 301 300 301 301 300 298 297 296 295 294 294 294 293 292 294 299 304 307 307 306 305 305 304 306 316 323 325 319 314 309 303 295 290 287 285 286 290 295 297 292 288 287 288 294 297 301 303 309 311 310 306 303 303 307 313 320 324 325 323 320 319 330 360 18 23 21 17 15 14 12 10 13 17 23
307 307 307 307 306 305 305 305 305 305 304 303 302 302 302 302 300 299 297 296 295 294 294 293 291 291 293 299 305 308 308 309 311 313 316 317 319 321 324 320 315 309 302 295 289 283 278 277 278 283 288 291 294 298 302 305 305 305 307 311 313 312 308 308 310 315 324 330 331 330 327 329 338 358 19 30 32 30 24 20 16 14 13 15 20 27
308 307 307 307 306 305 305 306 306 306 305 304 303 302 302 302 302 301 299 298 297 296 295 294 292 292 294 300 304 307 309 311 314 317 319 321 324 328 330 326 320 313 306 299 291 284 275 267 264 266 278 289 302 312 317 315 311 307 305 309 311 312 311 313 319 327 336 339 338 336 336 342 353 6 19 34 39 36 30 24 19 15 14 16 24 32
307 306 306 306 306 305 305 306 306 305 304 303 303 302 302 302 302 302 299 299 298 296 294 293 293 295 299 303 306 308 311 313 315 317 318 322 329 334 335 331 327 323 317 310 301 289 271 255 247 252 281 304 318 321 319 316 312 309 307 310 312 314 314 318 328 337 344 343 342 343 348 354 356 2 21 42 45 41 35 29 22 17 13 17 27 38
306 305 305 305 305 304 304 305 305 304 303 302 302 302 303 303 302 301 298 297 296 295 293 292 293 297 302 306 309 312 316 318 318 317 318 327 336 341 339 336 333 330 327 326 323 316 298 252 233 284 323 344 344 335 319 316 316 315 315 317 318 318 318 325 336 345 349 348 348 351 360 5 4 7 26 46 50 47 41 34 26 19 12 16 29 43
306 306 305 304 304 304 303 303 303 302 301 301 301 302 303 303 302 301 300 299 297 295 293 292 294 298 304 308 311 315 319 319 317 317 320 332 343 346 343 339 337 335 335 335 334 335 350 42 27 337 336 353 354 349 326 320 321 325 326 327 326 325 325 333 342 348 352 355 358 4 12 16 15 16 24 42 50 50 45 38 30 20 12 15 28 44